| time (UTC) | temp F | wind direction | speed MPH | gust MPH | rain 1hr in | rain 24hr in | rain mn in | humidity % | barometer mb |
| 20260901093058 | 53 | 0.0 | 0.0 | 0.00 | 0.00 | 0.00 | 78 | 1030.5 | |
| 20260901090017 | 53 | 0.0 | 0.0 | 0.00 | 0.00 | 0.00 | 78 | 1030.3 | |
| 20260901083019 | 53 | 0.0 | 0.0 | 0.00 | 0.00 | 0.00 | 78 | 1030.2 | |
| 20260901080018 | 54 | 0.0 | 0.0 | 0.00 | 0.00 | 0.00 | 77 | 1030.3 | |
| 20260901073018 | 56 | 0.0 | 3.0 | 0.00 | 0.00 | 0.00 | 74 | 1030.1 | |
| 20260901070017 | 57 | 293 | 1.0 | 6.0 | 0.00 | 0.00 | 0.00 | 72 | 1030.6 |
| 20260901063017 | 59 | 293 | 2.0 | 7.0 | 0.00 | 0.00 | 0.00 | 68 | 1030.9 |
| 20260901060018 | 59 | 293 | 3.0 | 8.0 | 0.00 | 0.00 | 0.00 | 67 | 1030.9 |
| 20260901053017 | 59 | 293 | 2.0 | 7.0 | 0.00 | 0.00 | 0.00 | 72 | 1031.2 |
| 20260901050017 | 60 | 293 | 2.0 | 8.0 | 0.00 | 0.00 | 0.00 | 67 | 1031.5 |
| 20260901043057 | 62 | 293 | 3.0 | 7.0 | 0.00 | 0.00 | 0.00 | 66 | 1031.9 |
| 20260901040017 | 62 | 293 | 3.0 | 9.0 | 0.00 | 0.00 | 0.00 | 62 | 1032.2 |
| 20260901033016 | 62 | 293 | 3.0 | 13.0 | 0.00 | 0.00 | 0.00 | 64 | 1033.0 |
| 20260901030016 | 61 | 315 | 3.0 | 13.0 | 0.00 | 0.00 | 0.00 | 71 | 1033.0 |
| 20260901023016 | 61 | 315 | 3.0 | 9.0 | 0.00 | 0.00 | 0.00 | 68 | 1033.3 |
| 20260901020016 | 61 | 293 | 3.0 | 8.0 | 0.00 | 0.00 | 0.00 | 69 | 1034.2 |
| 20260901013138 | 60 | 293 | 3.0 | 7.0 | 0.00 | 0.00 | 0.00 | 68 | 1034.9 |
| 20260901010016 | 61 | 293 | 3.0 | 7.0 | 0.00 | 0.00 | 0.00 | 58 | 1035.2 |
| 20260901003017 | 60 | 293 | 3.0 | 5.0 | 0.00 | 0.00 | 0.00 | 66 | 1035.4 |
| 20260901000016 | 59 | 293 | 2.0 | 4.0 | 0.00 | 0.00 | 0.00 | 62 | 1036.0 |
| 20260831233017 | 57 | 315 | 2.0 | 7.0 | 0.00 | 0.00 | 0.00 | 65 | 1035.8 |
| 20260831230023 | 56 | 0 | 2.0 | 7.0 | 0.00 | 0.00 | 0.00 | 60 | 1035.7 |
| 20260831223019 | 55 | 0 | 2.0 | 7.0 | 0.00 | 0.00 | 0.00 | 61 | 1035.8 |
| 20260831220019 | 53 | 23 | 1.0 | 6.0 | 0.00 | 0.00 | 0.00 | 63 | 1035.6 |
| 20260831213018 | 51 | 0.0 | 5.0 | 0.00 | 0.00 | 0.00 | 60 | 1035.5 | |
| 20260831210018 | 50 | 0.0 | 0.0 | 0.00 | 0.00 | 0.00 | 57 | 1035.5 | |
| 20260831203018 | 50 | 0.0 | 0.0 | 0.00 | 0.00 | 0.00 | 52 | 1035.5 | |
| 20260831200018 | 50 | 0.0 | 0.0 | 0.00 | 0.00 | 0.00 | 50 | 1035.9 | |
| 20260831193018 | 50 | 0.0 | 2.0 | 0.00 | 0.00 | 0.00 | 52 | 1035.9 | |
| 20260831190017 | 50 | 0.0 | 3.0 | 0.00 | 0.00 | 0.00 | 53 | 1036.1 | |
| 20260831183017 | 50 | 0.0 | 0.0 | 0.00 | 0.00 | 0.00 | 55 | 1036.2 | |
| 20260831180017 | 50 | 0.0 | 2.0 | 0.00 | 0.00 | 0.00 | 57 | 1036.7 | |
| 20260831173019 | 47 | 0.0 | 0.0 | 0.00 | 0.00 | 0.00 | 68 | 1036.4 | |
| 20260831170017 | 49 | 0.0 | 0.0 | 0.00 | 0.00 | 0.00 | 66 | 1037.0 | |
| 20260831163017 | 48 | 0.0 | 0.0 | 0.00 | 0.00 | 0.00 | 68 | 1037.3 | |
| 20260831160017 | 48 | 0.0 | 0.0 | 0.00 | 0.00 | 0.00 | 70 | 1037.6 | |
| 20260831153058 | 49 | 0.0 | 3.0 | 0.00 | 0.00 | 0.00 | 72 | 1037.6 | |
| 20260831150018 | 50 | 0.0 | 4.0 | 0.00 | 0.00 | 0.00 | 68 | 1038.3 | |
| 20260831143017 | 48 | 0.0 | 0.0 | 0.00 | 0.00 | 0.00 | 72 | 1037.8 | |
| 20260831140037 | 47 | 0.0 | 0.0 | 0.00 | 0.00 | 0.00 | 78 | 1037.5 | |
| 20260831133018 | 48 | 0.0 | 0.0 | 0.00 | 0.00 | 0.00 | 77 | 1038.0 | |
| 20260831130018 | 50 | 0.0 | 0.0 | 0.00 | 0.00 | 0.00 | 74 | 1038.2 | |
| 20260831123017 | 50 | 0.0 | 0.0 | 0.00 | 0.00 | 0.00 | 73 | 1038.5 | |
| 20260831120018 | 49 | 0.0 | 0.0 | 0.00 | 0.00 | 0.00 | 73 | 1038.5 | |
| 20260831113018 | 51 | 0.0 | 0.0 | 0.00 | 0.00 | 0.00 | 65 | 1038.7 | |
| 20260831110017 | 50 | 0.0 | 0.0 | 0.00 | 0.00 | 0.00 | 66 | 1038.5 | |
| 20260831103018 | 48 | 0.0 | 0.0 | 0.00 | 0.00 | 0.00 | 72 | 1037.7 | |
| 20260831100017 | 49 | 0.0 | 0.0 | 0.00 | 0.00 | 0.00 | 71 | 1037.1 |